Tracking 18852 objects as of 23-Nov-2017
HD Live streaming from Space Station
objects crossing your sky now

FENGYUN 1D

Track FENGYUN 1D now!
10-day predictions
FENGYUN 1D is classified as:


NORAD ID: 27431
Int'l Code: 2002-024B
Perigee: 856.4 km
Apogee: 879.1 km
Inclination: 99.1 °
Period: 102.2 minutes
Semi major axis: 7238 km
RCS: 2.2279 m2 (large)
Launch date: May 15, 2002
Source: People's Republic of China (PRC)
Launch site: Taiyaun Space Center, China (TSC)

Polar-orbiting satellite; carries Multichannel Visible and Infrared Scan Radiometer (MVISR); means "wind and cloud."
aabbcc
Your satellite tracking list
Your tracking list is empty




NASA's NSSDC Master Catalog

Two Line Element Set (TLE):
1 27431U 02024B   17327.52855118 -.00000058  00000-0 -70541-5 0  9997
2 27431  99.0510 300.2566 0015617   6.1570 353.9789 14.09638440798854
Source of the keplerian elements: AFSPC